Location: Zagreb
(45.8000°N, 16.0000°E)
Time: 11:43:29
(UTC+01:00)

Transit 2A Rocket - Pass Details

Date: 08 October 2020
Orbit: 586 x 916 km, 66.7° (Epoch: 28 October)

Event Time Altitude Azimuth Distance (km) Brightness Sun altitude
Rises 16:43:48 0° 242° (WSW) 3,538 10.3 15.5°
Reaches altitude 10° 16:46:34 10° 252° (WSW) 2,606 10.3 15.1°
Maximum altitude 16:52:05 34° 316° (NW) 1,456 6.8 14.2°
Drops below altitude 10° 16:57:30 10° 20° (NNE) 2,553 7.3 13.4°
Sets 17:00:12 0° 30° (NNE) 3,457 7.9 12.9°
